sat.trackr.live / text

‹ back to catalog

UNKNOWN

NORAD 85151

UNKNOWN UNKNOWN UNKNOWN

§ Identity

Operator
Country
Launch date
Launch site
Launch vehicle
Mass (kg)
RCS (m²)

External: N2YO · Heavens-Above

§ Orbital elements

Epoch: 2026-09-18T11:16:50.426976Z

Period
96.64 min
Inclination
98.3809°
Eccentricity
0.0007648
Mean motion
14.90114675 rev/d
Perigee alt
592.2 km
Apogee alt
602.9 km
Semi-major
6,975.7 km
B*
1.3727e-3
RAAN
145.4017°
Arg perigee
337.2090°
Mean anomaly
22.8785°
Rev number
52,104

§ Raw data

UNKNOWN1 85151U          26261.47002809  .00013240  00000+0  13727-2 0  99982 85151  98.3809 145.4017 0007648 337.2090  22.8785 14.90114675521042

JSON: /api/v1/satellites/85151 · /tle

For live sub-satellite position, see the globe view (requires WebGL).

§ Visibility from observer

Set your observer location to see the next 7 days of passes ≥ 10°. The values pass through the URL so the page stays shareable.

No JS? Fill the form by hand. The geolocation button needs JavaScript.